When you browse on this site, cookies collect data to enhance your experience and personalize the content and advertising you see.
Visit our Privacy Policy to learn more. By continuing to use the site, you agree to this use of cookies and data.
  • In Österreich
  • Länderverzeichnis
  • Für 7 Tage
  • Wassertemperatur
  • Wetterkarte
  • News
  • Widgets
  • user-avatar
    Anmelden

    Stündliche Wetter Oran

    Heute, 29 Mai, Freitag

    Zeit Temperatur Niederschläge Wind Luftdruck Luftfeuchtigkeit
    00:00 +21°C° 0.7 mm 3 m/S 752 mmHg 82%
    01:00 +21°C° 0.2 mm 3 m/S 752 mmHg 83%
    02:00 +21°C° 0.2 mm 3 m/S 752 mmHg 85%
    03:00 +20°C° 0.2 mm 3 m/S 752 mmHg 86%
    04:00 +20°C° 0.1 mm 3 m/S 751 mmHg 85%
    05:00 +20°C° 0.1 mm 2 m/S 751 mmHg 85%
    06:00 +20°C° 0.1 mm 2 m/S 751 mmHg 84%
    07:00 +22°C° 0 mm 3 m/S 751 mmHg 78%
    08:00 +24°C° 0 mm 3 m/S 751 mmHg 72%
    09:00 +25°C° 0 mm 3 m/S 751 mmHg 65%
    10:00 +26°C° 0 mm 3 m/S 751 mmHg 63%
    11:00 +27°C° 0 mm 4 m/S 751 mmHg 60%
    12:00 +28°C° 0 mm 4 m/S 750 mmHg 58%
    13:00 +28°C° 0 mm 5 m/S 750 mmHg 58%
    14:00 +28°C° 0 mm 6 m/S 750 mmHg 58%
    15:00 +28°C° 0 mm 6 m/S 749 mmHg 59%
    16:00 +27°C° 0 mm 6 m/S 749 mmHg 61%
    17:00 +26°C° 0 mm 6 m/S 749 mmHg 63%
    18:00 +24°C° 0 mm 6 m/S 748 mmHg 66%
    19:00 +23°C° 0 mm 5 m/S 749 mmHg 67%
    20:00 +22°C° 0 mm 4 m/S 749 mmHg 69%
    21:00 +22°C° 0 mm 3 m/S 750 mmHg 71%
    22:00 +21°C° 0 mm 3 m/S 750 mmHg 73%
    23:00 +21°C° 0 mm 2 m/S 750 mmHg 75%

    Morgen, 30 Mai, Samstag

    Zeit Temperatur Niederschläge Wind Luftdruck Luftfeuchtigkeit
    00:00 +20°C° 0 mm 2 m/S 750 mmHg 77%
    01:00 +20°C° 0 mm 3 m/S 750 mmHg 80%
    02:00 +19°C° 0 mm 3 m/S 750 mmHg 84%
    03:00 +19°C° 0 mm 3 m/S 749 mmHg 88%
    04:00 +19°C° 0 mm 3 m/S 749 mmHg 86%
    05:00 +19°C° 0 mm 4 m/S 749 mmHg 84%
    06:00 +19°C° 0 mm 4 m/S 749 mmHg 83%
    07:00 +20°C° 0 mm 4 m/S 750 mmHg 77%
    08:00 +21°C° 0 mm 4 m/S 750 mmHg 72%
    09:00 +22°C° 0 mm 4 m/S 750 mmHg 67%
    10:00 +25°C° 0 mm 5 m/S 750 mmHg 60%
    11:00 +26°C° 0 mm 5 m/S 750 mmHg 54%
    12:00 +28°C° 0 mm 5 m/S 750 mmHg 48%
    13:00 +28°C° 0 mm 6 m/S 749 mmHg 48%
    14:00 +28°C° 0 mm 6 m/S 749 mmHg 49%
    15:00 +29°C° 0 mm 7 m/S 749 mmHg 49%
    16:00 +28°C° 0 mm 7 m/S 748 mmHg 52%
    17:00 +26°C° 0 mm 7 m/S 748 mmHg 55%
    18:00 +24°C° 0 mm 7 m/S 747 mmHg 58%
    19:00 +24°C° 0 mm 6 m/S 748 mmHg 59%
    20:00 +23°C° 0 mm 5 m/S 748 mmHg 60%
    21:00 +22°C° 0 mm 4 m/S 749 mmHg 61%
    22:00 +22°C° 0 mm 3 m/S 749 mmHg 62%
    23:00 +22°C° 0 mm 3 m/S 748 mmHg 63%

    übermorgen, 31 Mai, Sonntag

    Zeit Temperatur Niederschläge Wind Luftdruck Luftfeuchtigkeit
    00:00 +22°C° 0 mm 3 m/S 748 mmHg 65%
    01:00 +23°C° 0 mm 2 m/S 748 mmHg 64%
    02:00 +23°C° 0 mm 2 m/S 748 mmHg 63%
    03:00 +23°C° 0 mm 2 m/S 747 mmHg 62%
    04:00 +23°C° 0 mm 2 m/S 747 mmHg 61%
    05:00 +24°C° 0 mm 3 m/S 747 mmHg 59%
    06:00 +24°C° 0 mm 3 m/S 747 mmHg 58%
    07:00 +26°C° 0 mm 3 m/S 747 mmHg 52%
    08:00 +27°C° 0 mm 4 m/S 747 mmHg 47%
    09:00 +28°C° 0 mm 4 m/S 747 mmHg 41%
    10:00 +29°C° 0.1 mm 4 m/S 747 mmHg 39%
    11:00 +30°C° 0.1 mm 5 m/S 747 mmHg 37%
    12:00 +32°C° 0.1 mm 5 m/S 747 mmHg 36%
    13:00 +30°C° 0 mm 5 m/S 747 mmHg 41%
    14:00 +29°C° 0 mm 5 m/S 747 mmHg 47%
    15:00 +28°C° 0 mm 5 m/S 747 mmHg 52%
    16:00 +27°C° 0 mm 4 m/S 747 mmHg 53%
    17:00 +26°C° 0 mm 4 m/S 748 mmHg 54%
    18:00 +26°C° 0 mm 3 m/S 748 mmHg 55%
    19:00 +25°C° 0 mm 2 m/S 749 mmHg 57%
    20:00 +25°C° 0 mm 2 m/S 749 mmHg 58%
    21:00 +25°C° 0 mm 1 m/S 750 mmHg 60%
    22:00 +24°C° 0 mm 1 m/S 750 mmHg 63%
    23:00 +23°C° 0 mm 2 m/S 749 mmHg 67%

    1 Juni, Montag

    Zeit Temperatur Niederschläge Wind Luftdruck Luftfeuchtigkeit
    00:00 +23°C° 0 mm 2 m/S 749 mmHg 70%
    01:00 +21°C° 0 mm 2 m/S 749 mmHg 72%
    02:00 +22°C° 0 mm 1 m/S 749 mmHg 74%
    03:00 +22°C° 0 mm 1 m/S 749 mmHg 76%
    04:00 +22°C° 0 mm 1 m/S 749 mmHg 74%
    05:00 +22°C° 0 mm 1 m/S 749 mmHg 72%
    06:00 +23°C° 0 mm 1 m/S 749 mmHg 70%
    07:00 +24°C° 0 mm 1 m/S 750 mmHg 63%
    08:00 +26°C° 0 mm 1 m/S 750 mmHg 56%
    09:00 +27°C° 0 mm 1 m/S 750 mmHg 48%
    10:00 +28°C° 0 mm 1 m/S 750 mmHg 43%
    11:00 +30°C° 0 mm 2 m/S 750 mmHg 38%
    12:00 +31°C° 0 mm 2 m/S 750 mmHg 33%
    13:00 +31°C° 0 mm 3 m/S 750 mmHg 34%
    14:00 +31°C° 0 mm 3 m/S 750 mmHg 35%
    15:00 +32°C° 0 mm 4 m/S 749 mmHg 36%
    16:00 +30°C° 0 mm 3 m/S 749 mmHg 39%
    17:00 +29°C° 0 mm 2 m/S 749 mmHg 41%
    18:00 +29°C° 0 mm 2 m/S 749 mmHg 43%
    19:00 +27°C° 0 mm 2 m/S 749 mmHg 47%
    20:00 +26°C° 0 mm 1 m/S 749 mmHg 51%
    21:00 +25°C° 0 mm 1 m/S 750 mmHg 56%
    22:00 +25°C° 0 mm 1 m/S 750 mmHg 58%
    23:00 +24°C° 0 mm 2 m/S 749 mmHg 60%

    2 Juni, Dienstag

    Zeit Temperatur Niederschläge Wind Luftdruck Luftfeuchtigkeit
    00:00 +23°C° 0 mm 2 m/S 749 mmHg 63%
    01:00 +23°C° 0 mm 2 m/S 749 mmHg 66%
    02:00 +21°C° 0 mm 2 m/S 749 mmHg 68%
    03:00 +22°C° 0 mm 1 m/S 749 mmHg 71%
    04:00 +22°C° 0 mm 1 m/S 749 mmHg 69%
    05:00 +23°C° 0 mm 1 m/S 749 mmHg 67%
    06:00 +23°C° 0 mm 1 m/S 749 mmHg 65%
    07:00 +25°C° 0 mm 1 m/S 749 mmHg 58%
    08:00 +26°C° 0 mm 1 m/S 749 mmHg 51%
    09:00 +26°C° 0 mm 0 m/S 750 mmHg 44%
    10:00 +29°C° 0 mm 1 m/S 750 mmHg 41%
    11:00 +30°C° 0 mm 2 m/S 749 mmHg 39%
    12:00 +31°C° 0 mm 3 m/S 749 mmHg 36%
    13:00 +31°C° 0 mm 3 m/S 749 mmHg 37%
    14:00 +30°C° 0 mm 3 m/S 748 mmHg 38%
    15:00 +30°C° 0 mm 3 m/S 748 mmHg 39%
    16:00 +30°C° 0 mm 2 m/S 748 mmHg 41%
    17:00 +29°C° 0 mm 2 m/S 747 mmHg 42%
    18:00 +28°C° 0 mm 1 m/S 747 mmHg 44%
    19:00 +27°C° 0 mm 1 m/S 747 mmHg 47%
    20:00 +27°C° 0 mm 1 m/S 747 mmHg 50%
    21:00 +26°C° 0 mm 1 m/S 747 mmHg 54%
    22:00 +25°C° 0 mm 1 m/S 747 mmHg 56%
    23:00 +24°C° 0 mm 2 m/S 747 mmHg 59%

    3 Juni, Mittwoch

    Zeit Temperatur Niederschläge Wind Luftdruck Luftfeuchtigkeit
    00:00 +24°C° 0 mm 2 m/S 747 mmHg 62%
    01:00 +23°C° 0 mm 2 m/S 747 mmHg 64%
    02:00 +23°C° 0 mm 2 m/S 746 mmHg 67%
    03:00 +21°C° 0 mm 2 m/S 746 mmHg 69%
    04:00 +23°C° 0 mm 2 m/S 746 mmHg 68%
    05:00 +23°C° 0 mm 2 m/S 746 mmHg 66%
    06:00 +23°C° 0 mm 2 m/S 746 mmHg 65%
    07:00 +24°C° 0 mm 3 m/S 746 mmHg 57%
    08:00 +26°C° 0 mm 4 m/S 746 mmHg 49%
    09:00 +27°C° 0 mm 4 m/S 746 mmHg 41%
    10:00 +28°C° 0 mm 5 m/S 745 mmHg 41%
    11:00 +28°C° 0 mm 5 m/S 745 mmHg 41%
    12:00 +29°C° 0 mm 6 m/S 745 mmHg 41%
    13:00 +29°C° 0 mm 6 m/S 745 mmHg 40%
    14:00 +28°C° 0 mm 6 m/S 744 mmHg 40%
    15:00 +28°C° 0 mm 6 m/S 744 mmHg 40%
    16:00 +28°C° 0 mm 6 m/S 744 mmHg 42%
    17:00 +27°C° 0 mm 6 m/S 744 mmHg 44%
    18:00 +26°C° 0 mm 6 m/S 744 mmHg 46%
    19:00 +25°C° 0 mm 5 m/S 744 mmHg 51%
    20:00 +23°C° 0 mm 5 m/S 744 mmHg 56%
    21:00 +23°C° 0 mm 5 m/S 745 mmHg 61%
    22:00 +22°C° 0 mm 4 m/S 745 mmHg 61%
    23:00 +22°C° 0 mm 4 m/S 744 mmHg 61%
    Mehr zeigen